Weather History for Limon, CO

Change the Weather History Date:

Tuesday, October 25, 2011

  Actual Average Record
Temperature  
Mean Temperature 47 °F -  
Max Temperature 61 °F - 80 °F (2014)
Min Temperature 32 °F - 12 °F (2001)
Degree Days  
Heating Degree Days 18    
Month to date heating degree days 375  
Cooling Degree Days 0    
Month to date cooling degree days 0  
Moisture  
Dew Point 28 °F    
Average Humidity 50    
Maximum Humidity 70    
Minimum Humidity 29    
Precipitation  
Precipitation 0.01 in - 1.05 in (1997)
Month to date precipitation  
Year to date precipitation  
Sea Level Pressure  
Sea Level Pressure 29.94 in    
Wind  
Wind Speed 12 mph (North)    
Max Wind Speed 25 mph    
Max Gust Speed 31 mph    
Visibility 10 miles    
Events Rain    
T = Trace of Precipitation, MM = Missing Value Source: NWS Daily Summary

Daily Weather History Graph

Daily Weather History Graph

Search for Another Location

Airport:

Trip Planner

Search our weather history database for the weather conditions in past years. The results will help you decide how hot, cold, wet, or windy it might be!

Date:

Astronomy

Oct. 25, 2011 Rise Set
Actual Time 7:14 AM MDT 6:02 PM MDT
Civil Twilight 6:47 AM MDT 6:29 PM MDT
Nautical Twilight 6:15 AM MDT 7:00 PM MDT
Astronomical Twilight 5:44 AM MDT 7:32 PM MDT
Moon 5:50 AM MDT (10/25) 5:05 PM MDT (10/25)
Length of Visible Light 11h 42m
Length of Day
10h 47m
Waning Crescent, 2% of the Moon is Illuminated
Oct 25
Waning Crescent
Oct 26
New
Nov 2
First Quarter
Nov 10
Full
Nov 18
Last Quarter

Hourly Weather History & Observations

Time (MDT) Temp. Windchill Dew Point Humidity Pressure Visibility Wind Dir Wind Speed Gust Speed Precip Events Conditions
1:55 AM 46.9 °F - 19.0 °F 33% 29.74 in 10.0 mi West 9.2 mph - N/A   Clear
2:55 AM 37.9 °F 34.4 °F 19.0 °F 47% 29.76 in 10.0 mi NW 4.6 mph - N/A   Clear
3:55 AM 43.0 °F 39.5 °F 18.0 °F 37% 29.75 in 10.0 mi West 5.8 mph - N/A   Clear
4:55 AM 43.0 °F 37.2 °F 18.0 °F 37% 29.78 in 10.0 mi WNW 10.4 mph - N/A   Clear
5:55 AM 43.0 °F 38.2 °F 18.0 °F 37% 29.82 in 10.0 mi WNW 8.1 mph - N/A   Clear
6:55 AM 37.0 °F 31.0 °F 19.9 °F 50% 29.87 in 10.0 mi NW 8.1 mph - N/A   Clear
7:55 AM 48.9 °F - 21.9 °F 35% 29.89 in 10.0 mi NW 6.9 mph - N/A   Clear
8:55 AM 48.9 °F - 32.0 °F 52% 29.94 in 10.0 mi North 20.7 mph - N/A   Clear
9:55 AM 50.0 °F - 33.1 °F 52% 29.95 in 10.0 mi North 21.9 mph - N/A   Clear
10:55 AM 55.0 °F - 32.0 °F 42% 29.93 in 10.0 mi NNE 17.3 mph 23.0 mph N/A   Clear
11:55 AM 59.0 °F - 32.0 °F 36% 29.91 in 10.0 mi NNE 16.1 mph - N/A   Clear
1:55 PM 57.9 °F - 32.0 °F 37% 29.88 in 10.0 mi NNE 21.9 mph 27.6 mph N/A   Clear
2:55 PM 59.0 °F - 32.0 °F 36% 29.92 in 10.0 mi NE 19.6 mph 25.3 mph N/A   Clear
3:55 PM 57.0 °F - 32.0 °F 39% 29.92 in 10.0 mi NNE 16.1 mph - N/A   Clear
4:55 PM 54.0 °F - 32.0 °F 43% 29.94 in 10.0 mi North 19.6 mph 25.3 mph N/A   Clear
5:55 PM 48.9 °F - 33.1 °F 54% 30.00 in 10.0 mi NNE 15.0 mph - N/A   Clear
7:55 PM 39.9 °F 32.5 °F 30.9 °F 70% 30.04 in 10.0 mi North 12.7 mph - N/A   Partly Cloudy
8:55 PM 41.0 °F 32.8 °F 32.0 °F 70% 30.06 in 10.0 mi North 16.1 mph - N/A   Mostly Cloudy
9:55 PM 41.0 °F 32.8 °F 30.9 °F 67% 30.08 in 10.0 mi NNE 16.1 mph 24.2 mph N/A   Overcast
10:55 PM 37.0 °F 28.9 °F 35.1 °F 93% 30.09 in 10.0 mi North 12.7 mph - 0.01 in Rain Light Rain
11:10 PM 37.4 °F 28.5 °F 35.6 °F 93% 30.15 in 10.0 mi North 15.0 mph - 0.00 in Rain Light Rain
11:25 PM 35.6 °F 25.5 °F 33.8 °F 93% 30.16 in 10.0 mi North 17.3 mph - 0.00 in   Overcast
11:55 PM 34.0 °F 23.8 °F 33.1 °F 96% 30.10 in 10.0 mi North 16.1 mph - 0.00 in   Overcast